Location: Chilton Park
(37.7711°N, 100.0276°W)
Time: 13:53:55
(UTC+00:00)

Cosmos 2227 Rocket - Visible Passes

Search period start: 03 July 2022 00:00
Search period end: 13 July 2022 00:00
Orbit: 838 x 846 km, 71.0° (Epoch: 02 July)

Date Brightness Start Highest point End Pass type
(mag) Time Alt. Az. Time Alt. Az. Time Alt. Az.
03 Jul 3.2 08:42:15 29° SSE 08:44:19 39° ESE 08:49:32 10° NE visible
03 Jul 3.4 10:24:05 12° WSW 10:28:25 28° WNW 10:33:15 10° N visible
04 Jul 3.2 08:27:49 31° SE 08:29:21 36° ESE 08:34:30 10° NE visible
04 Jul 3.3 10:09:38 15° WSW 10:13:24 29° WNW 10:18:19 10° N visible
05 Jul 3.2 08:13:20 32° SE 08:14:23 34° ESE 08:19:27 10° NE visible
05 Jul 3.3 09:55:09 18° WSW 09:58:23 31° WNW 10:03:23 10° N visible
06 Jul 3.3 07:58:49 32° ESE 07:59:25 33° ESE 08:04:25 10° NE visible
06 Jul 3.2 09:40:38 22° WSW 09:43:22 32° WNW 09:48:27 10° N visible
07 Jul 3.3 07:44:16 31° ESE 07:44:27 31° ESE 07:49:22 10° NE visible
07 Jul 3.2 09:26:05 25° WSW 09:28:22 34° WNW 09:33:30 10° N visible
08 Jul 3.5 07:29:41 29° E 07:29:41 29° E 07:34:18 10° NE visible
08 Jul 3.1 09:11:30 29° W 09:13:21 36° WNW 09:18:34 10° N visible
09 Jul 3.6 07:15:04 27° E 07:15:04 27° E 07:19:14 10° NE visible
09 Jul 3.0 08:56:53 32° W 08:58:21 38° WNW 09:03:37 10° N visible
10 Jul 3.7 07:00:25 25° E 07:00:25 25° E 07:04:10 10° NE visible
10 Jul 2.9 08:42:14 36° W 08:43:20 40° WNW 08:48:40 10° N visible
11 Jul 3.8 06:45:45 23° E 06:45:45 23° E 06:49:05 10° NE visible
11 Jul 2.8 08:27:33 40° W 08:28:20 42° WNW 08:33:42 10° N visible
12 Jul 3.9 06:31:02 21° E 06:31:02 21° E 06:34:00 10° NE visible
12 Jul 2.8 08:12:51 43° WNW 08:13:20 44° WNW 08:18:45 10° N visible
